Погода в Куре

Япония     34°14′14″N   132°33′51″E
темп.,
°C
ветер,
м/с
пор.,
м/с
влажн.,
%
обл.,
%
осадки,
мм/ч
давл.,
гПа
погр.,
м
7 марта, вс
вс700:00+7ссв587443 0.0 1027537
03:00+6ссв567672 0.0 1026406
06:00+6ссв6876100 0.0 1027456
09:00+6св5669100 0.0 1027639
12:00+9всв2355100 0.0 1026615
15:00+10вюв2358100 0.0 1024494
18:00+9вюв1264100 0.0 1025199
21:00+9ссз226699 0.0 1026198
8 марта, пн
пн800:00+9св2367100 0.0 1025202
03:00+9св236499 0.0 1025198
06:00+8ссв447081 0.0 1024202
09:00+9ссв346887 0.0 1026474
12:00+13св135316 0.0 1025706
15:00+13вюв35588 0.0 1023730
18:00+11св33670 0.0 1024205
21:00+9ссв45694 0.0 1026250
9 марта, вт
вт900:00+8св457799 0.0 1025320
03:00+7св347988 0.0 1025264
06:00+6всв337537 0.0 1025249
09:00+8св226668 0.0 1026364
12:00+11ююз115994 0.0 1024434
15:00+11ю225785 0.0 1022366
18:00+10ююз1264100 0.0 1023171
21:00+9ссв1168100 0.0 1025156
10 марта, ср
ср1000:00+9с337796 0.0 1025201
03:00+7ссв447455 0.0 1025177
06:00+7ссв45680 0.0 1026166
09:00+9ссв45600 0.0 1028365
12:00+13всв24530 0.0 1027607
15:00+14в34540 0.0 1026669
18:00+11всв33670 0.0 1026123
21:00+10св44650 0.0 1028124
11 марта, чт
чт1100:00+9св44700 0.0 1028188
03:00+8св33707 0.0 1028171
06:00+8св236946 0.0 1028170
09:00+9св126355 0.0 1028293
12:00+11юз126096 0.0 1027377
15:00+12ю236298 0.0 1026292
18:00+11юв2272100 0.0 1026147
21:00+10ссз117593 0.0 102698